Weather Roundup
Issued by NWS Corpus Christi, TX

Home | Current Version | Previous Version | Text Only | Print | Product List | Glossary On
Versions: 1 2 3 4 5 6 7 8 9 10 11 12 13 14 15 16 17 18 19 20 21 22 23 24 25 26 27 28 29 30 31 32 33 34 35 36 37 38 39 40 41 42 43 44 45 46 47 48 49 50
000
ASUS44 KCRP 061010
HRRCRP

SOUTH TEXAS REGIONAL WEATHER ROUNDUP
NATIONAL WEATHER SERVICE CORPUS CHRISTI TX
400 AM CST FRI MAR 06 2015


TXZ229>244-061100-
...CORPUS CHRISTI AREA OBSERVATIONS...

CITY           SKY/WX    TMP DP  RH WIND       PRES   REMARKS
CORPUS CHRISTI CLOUDY    39  27  62 N17       30.52F WCI  30
NAS CORPUS CHR MOCLDY    40  30  67 N22       30.51F WCI  30
ROCKPORT       CLEAR     38  27  64 N10G21    30.54R WCI  31
KINGSVILLE NAS MOCLDY    40  29  64 N9        30.54S
ALICE          CLOUDY    39  26  59 N9        30.54F
FALFURRIAS     CLOUDY    42  24  50 N13       30.53S
$$

...VICTORIA AREA OBSERVATIONS...

CITY           SKY/WX    TMP DP  RH WIND       PRES   REMARKS
VICTORIA       PTCLDY    33  26  75 N10       30.55S WCI  25
BEEVILLE       FAIR      35  26  71 N12       30.54F WCI  27
PLEASANTON     FLURRIES  33  23  67 NE5       30.57S
SAN ANTONIO    PTCLDY    32  20  61 N8        30.55F
$$

...LAREDO AREA OBSERVATIONS...

CITY           SKY/WX    TMP DP  RH WIND       PRES   REMARKS
LAREDO         CLOUDY    39  22  51 NE16      30.55F WCI  30
COTULLA        MOCLDY    36  25  64 E5        30.56S
DEL RIO        CLEAR     34  27  75 E5        30.51F
MCALLEN        CLOUDY    47  27  45 N9        30.54R
HEBBRONVILLE   CLOUDY   N/A N/A N/A N13G18    30.53S
$$

...OTHER TEXAS OBSERVATIONS...

CITY           SKY/WX    TMP DP  RH WIND       PRES   REMARKS
BROWNSVILLE    LGT RAIN  45  35  68 NW10      30.48F
HOUSTON        PTCLDY    32  23  69 N3        30.56S
COL. STATION   CLEAR     29  23  78 N7        30.58S
AUSTIN         PTCLDY    22  18  85 CALM      30.58R
WACO           CLEAR     21  19  92 SW6       30.58F
FORT WORTH     CLEAR     28  21  75 W8        30.55F
WICHITA FALLS  CLEAR     25  19  78 S9        30.51F
LUBBOCK        CLEAR     27  24  89 SW7       30.38F
EL PASO        CLEAR     36  17  46 CALM      30.35S
$$

...MARINE OBSERVATIONS...

STATION/POSITION TIME  SKY/WX   TEMP    WIND        PRES    VSBY  WAVE   SWELL
                                AIR SEA DIR/SP/G                  HT/PER HT/PER
                 (UTC)          (F)     (DEG/KT/KT) (MB)    (MI)  (FT/S) (FT/S)
PORT ARANSAS     1000            40 54  360/ 19/ 21 1033.2F
BUOY 90 E PORT A 1000            48 67   20/ 21/ 25 1031.3R         9/ 8
BUOY 45 SE BAFFI 1000            52 64   20/ 19/ 23 1030.7F         9/10   5/10
BUOY 200 E PT IS 1000            58 70   20/ 23/ 27 1026.2R        13/10
BUOY 15 E GALVES 1000            40 58   30/ 21/ 27 1032.4F         5/ 5
$$



USA.gov is the U.S. government's official web portal to all federal, state and local government web resources and services.